TimeMDT,TemperatureF,Dew PointF,Humidity,Sea Level PressureIn,VisibilityMPH,Wind Direction,Wind SpeedMPH,Gust SpeedMPH,PrecipitationIn,Events,Conditions,WindDirDegrees,DateUTC
12:53 AM,43.0,37.0,80,30.04,10.0,Calm,Calm,-,N/A,,Clear,0,2013-09-20 06:53:00
1:53 AM,43.0,37.0,80,30.02,10.0,Calm,Calm,-,N/A,,Clear,0,2013-09-20 07:53:00
2:53 AM,41.0,36.0,82,30.02,10.0,North,3.5,-,N/A,,Clear,360,2013-09-20 08:53:00
3:53 AM,41.0,33.1,73,30.01,10.0,North,3.5,-,N/A,,Clear,10,2013-09-20 09:53:00
4:53 AM,42.1,32.0,67,30.01,10.0,NNE,5.8,-,N/A,,Clear,30,2013-09-20 10:53:00
5:53 AM,39.9,35.1,83,30.00,10.0,NNE,4.6,-,N/A,,Clear,20,2013-09-20 11:53:00
6:53 AM,39.9,35.1,83,30.01,10.0,NE,8.1,-,N/A,,Clear,50,2013-09-20 12:53:00
7:53 AM,41.0,36.0,82,30.03,10.0,NE,11.5,16.1,N/A,,Clear,40,2013-09-20 13:53:00
8:53 AM,45.0,37.0,74,30.02,10.0,ENE,11.5,-,N/A,,Clear,60,2013-09-20 14:53:00
9:53 AM,51.1,37.0,59,30.00,10.0,ENE,11.5,19.6,N/A,,Clear,60,2013-09-20 15:53:00
10:53 AM,57.9,36.0,44,29.97,10.0,ENE,8.1,-,N/A,,Clear,70,2013-09-20 16:53:00
11:53 AM,66.0,32.0,28,29.93,10.0,Variable,5.8,-,N/A,,Clear,0,2013-09-20 17:53:00
12:53 PM,69.1,33.1,26,29.89,10.0,Calm,Calm,-,N/A,,Clear,0,2013-09-20 18:53:00
1:53 PM,75.0,33.1,22,29.85,10.0,ENE,6.9,-,N/A,,Clear,60,2013-09-20 19:53:00
2:53 PM,78.1,30.0,17,29.81,10.0,East,3.5,-,N/A,,Clear,100,2013-09-20 20:53:00
3:53 PM,79.0,32.0,18,29.78,10.0,SSW,3.5,-,N/A,,Clear,200,2013-09-20 21:53:00
4:53 PM,79.0,30.0,17,29.75,10.0,Calm,Calm,-,N/A,,Clear,0,2013-09-20 22:53:00
5:53 PM,78.1,30.9,18,29.74,10.0,SSE,6.9,-,N/A,,Clear,160,2013-09-20 23:53:00
6:53 PM,73.9,34.0,23,29.73,10.0,South,5.8,-,N/A,,Clear,170,2013-09-21 00:53:00
7:53 PM,68.0,32.0,26,29.73,10.0,South,5.8,-,0.00,Rain,Light Rain,170,2013-09-21 01:53:00
8:53 PM,57.9,37.9,47,29.75,10.0,Calm,Calm,-,0.00,,Clear,0,2013-09-21 02:53:00
9:53 PM,63.0,35.1,35,29.72,10.0,SSE,8.1,-,N/A,,Clear,150,2013-09-21 03:53:00
10:53 PM,64.9,34.0,32,29.68,10.0,South,10.4,-,N/A,,Clear,170,2013-09-21 04:53:00
11:53 PM,60.1,36.0,41,29.67,10.0,SSE,8.1,-,N/A,,Clear,160,2013-09-21 05:53:00